CW1663 Weather Reports


time (UTC)temp
F
wind
direction
speed
knots
gust
knots
rain 1hr
in
rain 24hr
in
rain mn
in
humidity
%
barometer
mb
20260510112804 54 39 6.1 17.4 0.00 0.00 0.00 75 1014.8
20260510112306 54 38 7.8 19.1 0.00 0.00 0.00 74 1014.8
20260510111304 54 37 6.1 17.4 0.00 0.00 0.00 75 1014.8
20260510105804 53 32 6.1 12.2 0.00 0.00 0.00 76 1014.9
20260510103304 53 30 7.0 15.6 0.00 0.00 0.00 77 1015.2
20260510102806 53 23 6.1 13.9 0.00 0.00 0.00 78 1015.2
20260510101304 53 58 5.2 14.8 0.00 0.00 0.00 78 1015.0
20260510094804 53 61 7.0 18.2 0.00 0.00 0.00 79 1015.0
20260510092805 53 41 6.1 15.6 0.00 0.00 0.00 81 1015.0
20260510092306 52 62 5.2 14.8 0.00 0.00 0.00 83 1015.2
20260510091804 52 12 7.0 14.8 0.00 0.00 0.00 84 1015.2
20260510091304 52 35 7.8 13.9 0.00 0.00 0.00 84 1015.2
20260510085805 51 43 5.2 14.8 0.00 0.00 0.00 86 1015.3
20260510085306 51 39 6.1 12.2 0.00 0.00 0.00 86 1015.3
20260510083304 51 13 6.1 15.6 0.00 0.00 0.00 87 1015.5
20260510081304 50 12 5.2 11.3 0.00 0.00 0.00 87 1015.6
20260510080804 50 28 5.2 13.0 0.00 0.00 0.00 87 1015.6
20260510075805 50 31 5.2 10.4 0.00 0.00 0.00 87 1015.6
20260510075306 50 34 5.2 10.4 0.00 0.00 0.00 87 1015.5
20260510072804 50 35 4.3 10.4 0.00 0.00 0.00 87 1015.7
20260510071804 50 35 7.0 11.3 0.00 0.00 0.00 87 1015.8
20260510071304 50 46 3.5 12.2 0.00 0.00 0.00 87 1015.7
20260510070804 49 42 5.2 13.0 0.00 0.00 0.00 87 1015.7
20260510070304 49 54 6.1 12.2 0.00 0.00 0.00 87 1015.8
20260510065804 49 64 4.3 10.4 0.00 0.00 0.00 87 1015.8
20260510064804 49 56 5.2 11.3 0.00 0.00 0.00 87 1015.8
20260510062804 49 41 6.1 10.4 0.00 0.00 0.00 89 1015.8
20260510060804 48 40 5.2 10.4 0.00 0.00 0.00 89 1015.7
20260510055804 48 55 3.5 10.4 0.00 0.00 0.00 90 1015.7
20260510054304 48 43 4.3 10.4 0.00 0.00 0.00 90 1015.6
20260510053804 48 45 4.3 10.4 0.00 0.00 0.00 90 1015.6
20260510052804 47 39 5.2 10.4 0.00 0.00 0.00 90 1015.6
20260510052306 47 39 5.2 10.4 0.00 0.00 0.00 90 1015.7
20260510050804 47 34 4.3 10.4 0.00 0.00 0.00 90 1015.6
20260510050304 47 27 2.6 10.4 0.00 0.00 0.00 90 1015.7
20260510045804 47 21 5.2 11.3 0.00 0.00 0.00 90 1015.7
20260510045306 47 54 5.2 11.3 0.00 0.00 0.00 90 1015.6
20260510044804 47 44 4.3 10.4 0.00 0.00 0.00 90 1015.6
20260510043804 47 35 5.2 13.9 0.00 0.00 0.00 90 1015.5
20260510043304 47 29 4.3 11.3 0.00 0.00 0.00 90 1015.4
20260510042804 47 28 6.1 13.0 0.00 0.00 0.00 90 1015.4
20260510042306 47 26 5.2 12.2 0.00 0.00 0.00 90 1015.6
20260510041804 47 12 5.2 12.2 0.00 0.00 0.00 90 1015.6
20260510040804 48 30 6.1 13.9 0.00 0.00 0.00 90 1015.6
20260510035306 48 21 6.1 11.3 0.00 0.00 0.00 90 1015.8
20260510034304 48 40 6.1 11.3 0.00 0.00 0.00 90 1015.8
20260510033804 48 8 4.3 12.2 0.00 0.00 0.00 90 1015.8
20260510033305 48 16 4.3 11.3 0.00 0.00 0.00 90 1015.8
20260510032306 48 33 5.2 10.4 0.00 0.00 0.00 90 1015.9
20260510031304 49 38 3.5 8.7 0.00 0.00 0.00 90 1015.9
20260510030804 49 24 4.3 10.4 0.00 0.00 0.00 90 1015.9
20260510030304 49 32 4.3 8.7 0.00 0.00 0.00 90 1015.9
20260510025804 49 32 4.3 10.4 0.00 0.00 0.00 90 1015.9
20260510023805 49 48 4.3 10.4 0.00 0.00 0.00 89 1016.0
20260510022804 49 35 4.3 10.4 0.00 0.00 0.00 89 1016.0
20260510021304 50 23 4.3 8.7 0.00 0.00 0.00 88 1015.9
20260510020804 50 39 4.3 8.7 0.00 0.00 0.00 87 1015.9
20260510012804 51 53 3.5 7.8 0.00 0.00 0.00 82 1016.0
20260510011804 51 27 4.3 8.7 0.00 0.00 0.00 82 1016.0
20260510011304 51 58 4.3 10.4 0.00 0.00 0.00 82 1015.9
20260510010304 51 34 2.6 8.7 0.00 0.00 0.00 82 1016.0
20260510005306 51 43 4.3 10.4 0.00 0.00 0.00 81 1016.0
20260510004804 51 51 3.5 8.7 0.00 0.00 0.00 81 1016.0
20260510003304 51 45 4.3 8.7 0.00 0.00 0.00 79 1016.1
20260510002805 51 38 4.3 10.4 0.00 0.00 0.00 79 1016.1
20260510002306 51 41 4.3 10.4 0.00 0.00 0.00 78 1016.0
20260510001805 51 25 4.3 10.4 0.00 0.00 0.00 77 1016.0
20260510001304 51 46 4.3 8.7 0.00 0.00 0.00 76 1016.2
20260510000804 51 51 3.5 8.7 0.00 0.00 0.00 76 1016.2
20260510000304 51 46 4.3 8.7 0.00 0.00 0.00 75 1016.1
20260509234304 51 45 2.6 6.1 0.00 0.00 0.00 74 1016.1
20260509232804 52 41 1.7 8.7 0.00 0.00 0.00 73 1016.1
20260509232306 52 29 4.3 8.7 0.00 0.00 0.00 73 1016.3
20260509231805 52 12 2.6 7.0 0.00 0.00 0.00 73 1016.3
20260509230814 52 50 4.3 7.8 0.00 0.00 0.00 73 1016.3
20260509230305 52 357 3.5 7.8 0.00 0.00 0.00 73 1016.3
20260509225804 52 47 3.5 8.7 0.00 0.00 0.00 73 1016.3
20260509224804 52 42 3.5 8.7 0.00 0.00 0.00 71 1016.4
20260509223804 52 46 2.6 7.0 0.00 0.00 0.00 70 1016.4
20260509221804 52 47 3.5 7.8 0.00 0.00 0.00 68 1016.5
20260509221304 52 46 2.6 7.8 0.00 0.00 0.00 67 1016.4
20260509220804 52 43 2.6 7.8 0.00 0.00 0.00 67 1016.4
20260509220304 52 53 2.6 6.1 0.00 0.00 0.00 66 1016.4
20260509215306 52 13 3.5 7.8 0.00 0.00 0.00 65 1016.3
20260509214804 52 42 2.6 7.8 0.00 0.00 0.00 65 1016.3
20260509213804 52 35 2.6 7.0 0.00 0.00 0.00 64 1016.4
20260509212306 53 15 4.3 10.4 0.00 0.00 0.00 63 1016.2
20260509211304 53 32 4.3 8.7 0.00 0.00 0.00 63 1016.2
20260509210304 53 53 2.6 7.0 0.00 0.00 0.00 62 1016.2
20260509204304 53 36 3.5 7.8 0.00 0.00 0.00 61 1016.0
20260509202804 54 25 4.3 11.3 0.00 0.00 0.00 60 1015.9
20260509202306 54 45 3.5 8.7 0.00 0.00 0.00 60 1015.9
20260509201804 54 43 4.3 10.4 0.00 0.00 0.00 60 1015.9
20260509200804 54 37 4.3 8.7 0.00 0.01 0.00 62 1016.0
20260509200304 55 36 4.3 7.8 0.00 0.01 0.00 63 1015.9
20260509195804 55 14 3.5 7.8 0.00 0.01 0.00 62 1015.9
20260509194805 55 43 5.2 10.4 0.00 0.01 0.00 63 1015.9
20260509193305 56 36 3.5 10.4 0.00 0.01 0.00 63 1015.9
20260509192306 56 41 4.3 10.4 0.00 0.01 0.00 61 1015.7
20260509191304 56 50 5.2 12.2 0.00 0.01 0.00 61 1015.6
20260509190306 57 47 4.3 10.4 0.00 0.01 0.00 60 1015.5
20260509185804 57 42 3.5 10.4 0.00 0.01 0.00 59 1015.5
20260509183804 58 30 4.3 8.7 0.00 0.01 0.00 58 1015.4
20260509182804 59 36 3.5 10.4 0.00 0.01 0.00 58 1015.5
20260509182306 59 66 4.3 10.4 0.00 0.01 0.00 58 1015.5
20260509181304 60 42 3.5 7.8 0.00 0.01 0.00 59 1015.4
20260509180804 60 36 3.5 7.0 0.00 0.01 0.00 58 1015.4
20260509180304 60 58 4.3 8.7 0.00 0.01 0.00 58 1015.6
20260509175306 60 42 3.5 7.0 0.00 0.01 0.00 57 1015.7
20260509174805 60 53 4.3 10.4 0.00 0.01 0.00 56 1015.7
20260509174304 61 39 6.1 11.3 0.00 0.01 0.00 56 1015.4
20260509173804 61 47 3.5 10.4 0.00 0.01 0.00 57 1015.4
20260509173305 61 44 5.2 10.4 0.00 0.01 0.00 57 1015.2
20260509172804 61 48 4.3 7.8 0.00 0.01 0.00 56 1015.2
20260509172306 61 58 6.1 10.4 0.00 0.01 0.00 56 1015.2
20260509171304 63 50 4.3 13.9 0.00 0.01 0.00 57 1015.2
20260509170804 63 63 4.3 10.4 0.00 0.01 0.00 57 1015.2
20260509170304 63 62 2.6 7.8 0.00 0.01 0.00 57 1015.2
20260509164304 64 36 2.6 10.4 0.00 0.01 0.00 58 1015.3
20260509163804 64 39 4.3 10.4 0.00 0.01 0.00 58 1015.3
20260509163304 64 63 5.2 12.2 0.00 0.01 0.00 57 1015.3
20260509162804 64 39 5.2 13.0 0.00 0.01 0.00 57 1015.3
20260509161304 65 80 6.1 10.4 0.00 0.01 0.00 56 1015.3
20260509160304 65 16 4.3 8.7 0.00 0.01 0.00 56 1015.4
20260509155804 65 71 5.2 8.7 0.00 0.01 0.00 56 1015.4
20260509154804 66 45 5.2 11.3 0.00 0.01 0.00 56 1015.4
20260509153804 65 56 5.2 10.4 0.00 0.01 0.00 56 1015.5
20260509153304 65 51 6.1 10.4 0.00 0.01 0.00 56 1015.5
20260509152804 65 64 5.2 12.2 0.00 0.01 0.00 56 1015.5
20260509151804 66 36 5.2 10.4 0.00 0.01 0.00 55 1015.7
20260509151304 66 60 2.6 8.7 0.00 0.01 0.00 57 1015.7
20260509150304 66 57 5.2 12.2 0.00 0.01 0.00 56 1015.7
20260509144305 66 75 2.6 8.7 0.00 0.01 0.00 56 1015.5
20260509141804 66 87 5.2 11.3 0.00 0.01 0.00 56 1015.5
20260509141304 66 52 5.2 10.4 0.00 0.01 0.00 57 1015.3
20260509140804 66 35 3.5 12.2 0.00 0.01 0.00 57 1015.3
20260509134804 66 60 4.3 10.4 0.00 0.01 0.00 56 1015.4
20260509131804 66 27 4.3 11.3 0.00 0.01 0.00 57 1015.6
20260509131304 66 85 4.3 8.7 0.00 0.01 0.00 57 1015.6
20260509125307 66 58 5.2 11.3 0.00 0.01 0.00 58 1015.7
20260509124804 66 65 6.1 12.2 0.00 0.01 0.00 57 1015.7
20260509124304 66 49 5.2 10.4 0.00 0.01 0.00 57 1015.7
20260509123304 66 82 5.2 11.3 0.00 0.01 0.00 57 1015.9
20260509121304 65 101 4.3 10.4 0.00 0.01 0.00 54 1016.2
20260509115306 65 60 5.2 11.3 0.00 0.01 0.00 56 1016.3
20260509114804 65 78 4.3 8.7 0.00 0.01 0.00 57 1016.3
20260509113805 65 46 4.3 10.4 0.00 0.01 0.00 58 1016.3